Flag for United Kingdom Weather past 2 weeks in Oxford, England, United Kingdom

Now
70 °F

Broken clouds.


Feels Like: 70 °F
Forecast: 56 / 71 °F
Wind: 8 mph from Southwest

Location: Benson

Current Time: Jul 31, 2014 at 11:30:27 AM

Latest Report: Jul 31, 2014 at 10:50 AM


Visibility: N/A

Pressure: 29.95 "Hg

Humidity: 60%

Dew point: 55 °F

Location of OxfordLocation

Historic Weather in Oxford — Graph

°F

Oxford temperature yesterday

Maximum temperature yesterday: 77 °F (at 5:50 PM)
Minimum temperature yesterday: 48 °F (at 5:50 AM)
Average temperature yesterday: 65 °F

Past Weeks' High & Low Weather Summary

 TemperatureHumidityPressure
High82 °F (Jul 24, 3:50 PM)100% (Jul 19, 9:50 PM)30.24 "Hg (Jul 19, 9:50 PM)
Low48 °F (Jul 30, 5:50 AM)37% (Jul 29, 3:50 PM)29.68 "Hg (Jul 19, 5:50 PM)
Average68 °F72%30.01 "Hg
* Reported Jul 16 9:50 AM — Jul 31 9:50 AM, Oxford, Weather by CustomWeather, © 2014

Note: Actual official high and low records may vary slightly from our data, if they occured in-between our weather recording intervals... More about our weather records

Advertising

Oxford weather history for previous 24 hours

 ConditionsComfort  
Time TempWeatherWind HumidityBarometerVisibility
9:50 AM
Jul 31
68 °FScattered clouds.8 mph64%29.95 "HgN/A
8:50 AM64 °FScattered clouds.8 mph73%29.98 "HgN/A
7:50 AM61 °FPassing clouds.3 mph83%29.98 "HgN/A
6:50 AM57 °FSunny.3 mph88%29.98 "Hg10 mi
5:50 AM50 °FClear.2 mph94%29.98 "Hg10 mi
4:50 AM52 °FClear.3 mph100%29.98 "Hg6 mi
3:50 AM55 °FClear.5 mph94%29.98 "HgN/A
2:50 AM55 °FClear.2 mph94%29.98 "Hg10 mi
1:50 AM59 °FClear.3 mph88%29.98 "Hg10 mi
12:50 AM59 °FClear.2 mph88%30.01 "Hg10 mi
11:50 PM
Jul 30
61 °FClear.3 mph83%30.01 "Hg10 mi
10:50 PM63 °FClear.3 mph77%29.98 "Hg10 mi
9:50 PM66 °FSunny.3 mph73%29.98 "Hg10 mi
8:50 PM70 °FSunny.7 mph60%29.98 "Hg10 mi
7:50 PM73 °FSunny.6 mph50%29.98 "Hg10 mi
6:50 PM75 °FSunny.8 mph44%29.95 "Hg10 mi
5:50 PM77 °FSunny.8 mph44%29.98 "Hg10 mi
4:50 PM75 °FSunny.7 mph47%29.98 "Hg10 mi
3:50 PM73 °FPassing clouds.8 mph47%29.98 "HgN/A
2:50 PM75 °FPassing clouds.10 mph44%29.98 "HgN/A
1:50 PM73 °FPassing clouds.8 mph44%29.98 "HgN/A
12:50 PM72 °FPassing clouds.8 mph47%30.01 "HgN/A
11:50 AM70 °FScattered clouds.9 mph50%30.01 "HgN/A
Weather by CustomWeather, © 2014

See weather overviewHow to use our weather pages